Theta_e
316 316 316 316 315 315 315 314 314 314 315 315 314 315 315 315 316 315 316 316 315 315 313 312 312 311 310 309 311 312 312 316 323 326 325 322 318 318 316 312 310 312 324 336 340 342 341 341 343 344 349 348 348 351 352 355 357 360 364 364 359 358 359 361 363 359 358 360 360 361 360 359 360 361 358 355 356 354 352 350 345 346 344 345 348 349 348 344
316 316 316 315 315 314 314 313 312 312 313 313 313 313 314 314 314 314 315 314 314 314 313 313 313 312 311 309 312 313 314 320 326 323 323 320 316 314 313 311 310 312 322 337 343 341 337 338 342 346 349 348 353 353 353 358 358 359 364 364 360 361 363 363 361 359 361 361 360 361 361 360 360 358 357 359 359 356 353 349 346 347 345 348 349 349 347 344
315 314 314 313 314 314 313 313 313 312 312 312 312 313 313 313 313 313 313 312 312 312 312 313 314 312 310 310 313 314 317 324 326 324 326 323 318 313 311 309 310 312 321 338 342 338 335 337 346 348 349 353 356 354 355 359 359 358 361 368 368 365 363 362 360 360 360 360 360 360 359 360 358 355 356 359 358 356 353 349 348 349 347 347 347 347 346 342
314 314 313 313 313 313 313 313 313 313 313 313 313 313 314 314 313 312 312 312 311 312 312 314 314 312 311 312 313 315 321 327 326 331 329 324 322 315 310 309 310 312 323 338 339 336 333 337 347 349 350 355 355 355 358 360 359 358 361 368 368 363 362 363 361 359 357 358 359 358 358 359 357 354 356 356 356 356 352 348 348 349 348 346 345 344 344 342
313 313 313 313 313 313 313 313 314 314 314 314 314 313 313 314 313 312 313 313 312 313 313 314 314 312 311 312 314 318 324 322 324 334 326 321 322 317 310 309 310 315 328 338 336 334 331 336 344 348 352 354 356 357 360 359 357 361 362 362 362 362 362 364 363 359 358 359 359 358 357 359 357 354 354 353 355 355 348 346 347 347 346 345 344 343 343 342
313 313 313 313 313 313 313 314 315 315 315 315 314 313 314 314 313 313 314 314 314 313 313 314 313 311 312 312 315 322 326 318 324 332 324 320 321 316 311 309 310 318 331 337 334 332 329 335 343 349 351 353 357 357 357 357 356 364 364 359 360 362 362 363 362 360 361 361 359 357 356 357 356 353 352 352 352 350 345 344 346 346 346 346 344 342 340 341
313 313 313 314 313 313 314 315 315 314 314 314 314 314 314 315 314 313 314 315 314 313 313 313 312 311 312 315 320 325 324 319 331 333 324 320 318 311 310 309 312 321 332 335 332 330 327 336 345 348 351 353 355 356 357 356 356 363 364 361 361 362 362 361 358 359 360 361 360 357 357 358 355 354 356 354 350 346 345 344 344 347 347 345 342 339 339 342
313 313 314 314 314 314 314 314 313 313 313 313 314 313 314 315 315 314 313 314 314 313 314 312 312 312 312 317 326 328 324 321 333 334 323 319 314 308 312 315 319 327 332 333 331 329 327 335 344 346 353 355 352 356 357 348 354 362 362 361 360 362 362 359 358 357 358 361 360 357 359 358 354 356 358 353 349 346 345 344 345 345 345 343 340 339 341 342
313 313 313 313 314 314 313 313 313 313 313 313 314 313 314 314 314 314 312 312 313 313 313 312 313 312 313 320 325 322 324 325 333 333 322 319 314 311 318 322 324 330 331 331 330 329 327 333 342 346 354 353 348 351 348 342 351 359 360 360 360 361 361 360 360 357 360 363 361 360 361 358 354 357 359 352 346 345 345 345 344 343 342 341 340 340 341 341
312 313 313 313 313 313 313 313 313 313 314 314 314 314 314 314 315 314 312 312 312 313 311 312 313 312 316 324 325 321 323 324 332 332 323 320 317 317 324 325 325 330 329 327 328 328 327 331 340 345 350 351 348 343 340 344 349 357 359 360 360 358 359 362 363 362 363 363 363 362 361 359 357 358 358 351 346 346 345 345 343 342 342 340 340 340 342 341
313 313 313 313 313 313 313 313 313 313 314 314 314 314 314 315 315 314 313 312 313 313 311 312 312 314 321 326 324 323 319 321 330 330 324 322 318 319 325 326 326 329 326 324 327 326 326 330 337 347 349 347 345 341 341 344 347 356 358 359 359 357 363 362 362 362 362 362 361 363 363 362 360 360 358 349 346 346 345 345 342 342 342 342 342 340 342 343
313 313 313 313 313 313 313 313 314 314 314 314 314 314 315 315 314 313 312 312 313 312 312 312 312 316 324 325 322 321 316 322 331 329 327 324 320 320 324 326 326 327 325 325 326 324 325 328 336 347 349 343 341 340 340 343 350 353 356 363 362 362 364 361 361 360 361 361 358 362 363 361 361 361 357 347 346 346 345 345 342 342 343 343 343 340 341 343
313 313 313 313 313 313 313 313 313 314 314 314 315 315 315 314 312 312 312 312 312 312 313 313 314 320 325 323 320 317 316 324 330 330 329 327 324 324 324 325 326 327 327 326 325 324 324 329 339 347 347 343 340 338 336 341 353 356 360 365 364 365 365 363 362 361 362 361 359 361 356 356 362 360 354 346 346 347 346 346 343 343 343 342 342 341 341 342
313 313 313 313 313 313 313 313 313 314 314 314 315 315 314 313 312 312 312 313 313 313 313 311 316 325 326 321 318 315 319 325 328 329 330 327 325 326 325 325 326 328 327 326 326 324 326 331 338 344 346 345 341 336 334 338 353 357 359 363 361 358 360 364 361 362 364 360 360 361 351 354 364 360 354 348 345 346 345 345 344 343 343 343 342 341 340 341
314 314 313 313 313 313 312 313 313 314 314 315 316 314 313 312 312 312 312 313 314 313 313 314 320 327 327 322 317 314 320 327 328 328 328 326 323 323 325 325 326 326 326 325 326 326 328 330 335 342 344 344 341 338 337 337 350 356 355 353 353 349 356 365 363 363 364 360 362 362 353 357 363 358 355 349 346 346 345 345 344 343 343 343 342 341 341 341
314 314 313 313 313 313 312 313 313 314 315 316 315 313 312 312 312 313 312 313 314 313 318 325 327 326 324 321 316 315 322 328 328 326 325 324 322 322 323 324 324 323 324 323 324 326 327 327 333 341 342 343 340 339 339 332 338 353 355 346 343 343 352 361 362 362 362 362 363 361 358 361 361 357 356 351 346 346 345 345 344 344 344 343 342 342 342 341
314 314 314 313 313 313 313 313 313 315 316 315 314 312 312 312 312 312 312 313 316 318 324 331 327 323 323 318 314 318 325 329 327 325 326 324 323 322 321 322 322 322 322 321 322 323 324 325 331 338 340 342 342 339 332 322 328 345 352 348 347 350 349 351 359 361 360 362 363 362 363 362 357 356 358 354 350 349 348 345 344 344 344 343 342 341 342 342
315 315 314 313 313 313 313 313 313 315 316 313 313 313 313 312 313 315 316 318 322 324 326 327 323 321 320 315 316 321 326 328 327 326 326 325 325 323 321 321 320 320 321 320 320 320 322 323 330 338 341 341 342 338 326 321 331 337 343 347 348 352 349 348 356 360 360 361 361 362 362 361 358 356 357 356 354 354 351 346 346 345 344 345 342 342 343 343
315 315 314 313 313 313 313 313 313 315 315 312 313 315 316 316 318 323 326 325 327 329 327 324 321 319 316 316 319 322 325 328 327 327 325 324 324 323 323 322 320 320 319 319 319 320 322 322 327 334 339 341 342 338 331 332 339 341 347 348 345 348 350 354 358 358 361 361 361 364 361 361 361 358 358 358 356 355 353 348 346 346 345 344 342 342 344 343
316 315 315 314 313 313 313 312 314 315 314 314 318 321 324 325 326 329 329 327 327 325 321 320 319 318 316 318 321 322 325 327 327 326 324 323 324 324 324 323 320 319 319 320 319 320 321 321 327 333 338 343 341 339 338 338 337 343 351 348 347 350 349 356 362 358 358 357 358 362 362 365 363 360 359 358 357 357 353 349 347 346 345 345 343 343 345 344
316 316 315 314 313 313 313 313 314 315 314 316 323 328 326 323 323 323 324 325 325 320 319 319 319 319 319 320 322 321 324 325 326 325 323 323 324 324 323 323 321 318 318 320 320 321 321 319 326 336 340 342 340 339 338 335 332 337 346 346 348 350 350 357 362 358 357 356 354 356 362 365 363 360 360 358 359 358 354 351 348 347 346 346 345 344 345 346
317 316 316 314 313 313 313 313 314 316 315 315 322 328 323 319 320 320 320 321 321 319 319 318 318 319 321 321 322 323 323 324 325 324 323 323 323 324 324 323 321 319 319 321 320 320 320 320 327 335 339 339 336 335 334 334 334 333 340 345 343 347 352 357 360 359 357 356 355 357 361 362 363 361 360 359 360 357 354 352 348 348 348 346 346 345 345 347
318 317 315 314 313 313 313 313 314 316 316 318 324 326 322 320 320 321 321 322 320 317 317 318 318 318 319 320 321 323 323 324 324 323 323 321 321 322 322 323 322 320 319 319 320 320 318 322 329 334 337 337 333 332 333 332 332 334 336 334 337 349 351 347 355 361 357 356 358 360 359 360 363 362 360 359 360 360 358 356 352 348 348 347 345 346 347 347
319 318 316 314 313 313 314 315 315 316 317 321 324 323 321 320 321 322 321 322 319 316 318 319 319 320 320 321 321 323 323 324 324 323 323 321 321 321 321 323 322 320 319 319 321 322 322 325 329 332 335 335 333 333 333 331 328 332 337 332 338 355 352 346 356 362 358 356 361 361 354 357 364 364 364 361 360 363 359 356 355 349 347 349 346 346 347 346
320 318 317 314 313 314 314 314 318 320 321 323 323 323 322 320 322 321 322 322 317 316 319 318 319 321 321 322 322 323 324 324 324 324 323 322 321 321 320 321 321 320 319 319 321 323 325 327 330 332 333 333 333 334 333 332 326 324 333 333 337 354 353 349 359 360 355 351 357 358 346 349 362 362 363 364 361 363 360 357 356 352 348 349 348 348 346 346
320 319 317 315 314 314 314 318 322 322 322 323 323 323 321 321 323 322 324 322 315 316 320 318 320 320 320 322 323 324 324 324 325 325 324 323 323 323 320 320 321 321 319 320 321 321 324 329 331 331 333 334 333 333 334 333 325 319 328 336 332 344 350 347 352 354 350 348 357 357 343 345 358 360 361 364 362 362 360 359 357 353 350 348 349 349 346 346
320 319 317 314 314 314 317 323 321 320 322 322 322 322 321 323 323 323 324 318 311 316 320 318 319 318 319 323 323 322 322 323 325 324 324 324 324 324 322 321 321 322 323 321 317 318 324 328 329 331 332 332 331 329 333 333 326 321 326 335 332 335 346 350 352 349 347 348 355 358 347 344 350 357 363 363 363 364 361 360 358 354 351 348 349 349 346 345
320 319 316 315 314 314 317 319 319 322 323 322 323 322 322 324 323 324 324 315 313 317 320 318 319 318 319 322 322 322 322 323 324 323 324 324 324 324 323 323 322 324 326 320 313 317 326 327 328 331 328 328 330 330 333 333 328 328 330 331 331 333 342 349 351 344 341 340 341 348 349 343 341 350 364 367 364 365 363 360 359 356 352 349 348 348 345 345
319 319 317 315 314 314 313 314 319 323 322 322 322 321 323 324 323 325 322 315 314 318 319 318 319 319 320 322 322 322 323 323 323 323 325 324 324 324 322 324 323 325 327 324 320 323 327 327 326 327 326 325 328 331 333 332 331 332 331 329 330 335 340 342 343 340 339 335 331 337 345 344 341 348 360 363 360 362 363 360 358 355 352 351 349 347 345 344
319 319 317 315 315 318 317 316 318 320 321 322 322 322 324 323 324 323 316 313 315 317 318 318 319 319 321 321 320 321 322 323 323 323 324 323 323 323 323 324 323 325 328 326 326 326 325 326 326 326 325 324 326 329 330 331 331 331 330 329 329 334 339 339 337 338 337 332 328 333 340 341 340 346 355 359 358 360 363 360 358 356 353 351 350 347 345 344
319 318 317 315 318 322 323 322 322 321 322 322 322 324 324 324 326 317 312 315 316 316 317 318 319 320 321 321 320 320 321 322 323 323 323 323 322 322 322 323 323 323 324 323 323 325 325 324 325 325 325 325 325 326 328 328 328 329 330 327 326 327 331 330 329 332 332 327 326 333 341 340 335 341 354 360 358 357 360 360 358 358 355 352 350 347 345 344
319 318 316 315 315 317 318 321 323 322 322 322 322 324 325 325 320 312 312 315 314 314 317 318 320 320 321 321 321 321 321 322 322 323 323 323 321 322 322 322 322 319 316 316 318 320 323 325 324 324 324 325 324 323 324 326 326 328 328 323 319 321 326 327 326 327 326 323 324 331 339 341 338 343 352 358 356 354 356 357 357 357 356 353 351 348 346 345
319 318 315 314 313 314 316 320 323 322 322 323 322 325 327 320 313 311 313 314 313 315 317 317 319 320 319 320 320 320 321 321 322 322 323 323 322 322 322 322 323 320 315 316 314 313 317 322 323 323 322 323 324 320 317 318 322 324 323 319 317 321 326 329 327 326 325 321 323 332 334 331 335 347 355 356 355 354 353 354 354 355 355 353 350 348 346 345
319 317 314 314 313 313 317 320 322 322 323 323 324 326 325 315 311 313 315 314 316 316 317 317 318 318 318 319 319 319 319 319 321 322 322 323 321 320 321 322 322 323 320 317 313 311 311 314 319 322 320 322 322 321 319 320 321 324 326 325 319 319 324 327 326 325 325 322 323 331 330 324 331 348 357 354 352 353 353 353 355 355 354 352 350 348 346 345
317 315 314 317 316 316 319 320 322 324 323 324 326 325 318 312 311 314 314 316 318 317 317 317 318 317 316 318 320 320 318 317 319 321 322 321 320 320 321 321 322 323 321 315 314 314 310 311 320 322 321 322 321 320 323 321 319 322 326 325 319 322 324 322 322 323 324 325 327 331 330 332 344 354 357 355 351 353 354 354 356 355 354 353 350 348 346 346
318 317 318 322 324 324 324 323 324 325 323 324 324 318 314 314 315 315 316 317 317 318 317 316 316 314 312 315 318 319 319 318 319 319 319 320 320 321 322 322 321 322 321 317 316 315 310 312 321 323 320 323 321 320 322 320 317 320 320 318 323 331 329 319 319 322 321 323 329 332 330 334 346 352 354 355 353 354 356 356 357 357 356 354 351 348 347 348
324 323 323 326 325 325 327 325 325 325 324 326 321 315 316 318 317 317 318 318 317 318 317 313 314 314 311 312 315 317 318 317 318 317 316 318 318 319 322 322 321 321 321 319 318 319 314 312 319 323 320 322 322 321 321 321 321 318 315 318 326 330 328 323 320 323 323 322 325 327 326 328 333 341 349 354 356 355 354 353 355 358 358 357 353 350 351 349
328 325 323 326 324 324 326 325 326 325 325 325 320 317 319 319 318 317 318 318 316 318 317 313 314 315 313 311 312 317 317 314 316 317 315 316 317 318 321 321 320 320 321 320 318 321 318 311 316 323 321 321 322 321 318 320 323 320 318 323 324 319 317 320 321 323 324 323 323 322 322 323 327 336 344 349 354 356 354 353 352 356 358 357 352 349 350 349
327 324 322 325 323 324 326 325 326 325 324 323 319 318 318 318 318 318 318 318 317 318 318 316 316 316 316 314 314 317 317 314 316 316 315 316 316 318 320 320 320 319 320 321 320 322 322 313 312 320 322 321 321 318 313 314 320 321 321 324 323 318 317 318 320 321 320 320 323 322 320 323 332 344 349 351 353 352 352 354 354 355 356 356 356 354 350 350
324 322 323 323 322 324 327 326 325 323 322 322 319 319 319 318 319 318 318 319 318 318 318 318 317 316 317 318 316 317 317 317 317 316 316 317 316 317 320 319 320 320 319 320 320 320 322 317 311 318 323 319 316 317 315 315 317 317 315 316 318 318 318 319 319 318 318 318 321 322 322 328 344 357 354 351 352 350 350 354 354 354 354 356 357 358 355 352
322 321 323 323 322 324 326 325 323 322 321 320 319 319 319 318 319 319 318 318 318 318 318 318 319 318 317 317 317 317 318 318 318 317 318 318 316 316 319 319 320 320 319 319 320 320 320 317 312 313 316 314 315 321 321 320 320 319 315 314 317 317 314 315 316 316 317 316 318 320 321 330 349 358 354 351 351 351 350 352 353 353 353 355 357 358 357 354
323 321 323 322 322 324 324 322 321 320 320 319 318 318 318 319 318 318 318 318 318 318 318 319 319 319 319 318 317 318 318 317 318 318 317 318 319 318 319 320 319 320 320 319 320 321 322 321 315 312 315 317 321 323 321 321 323 323 321 319 321 319 313 311 311 313 315 315 317 317 318 330 349 354 353 354 355 354 351 352 353 352 354 356 355 355 355 354
322 322 323 322 322 322 322 321 320 319 319 319 318 318 318 319 318 318 318 318 318 318 319 319 319 319 319 319 318 319 318 317 317 318 318 319 320 319 319 320 319 320 321 320 321 322 322 321 315 313 318 321 322 323 323 324 323 321 322 322 321 318 318 317 315 316 315 312 315 315 316 330 349 354 355 356 357 357 355 356 356 354 357 358 357 357 356 354
322 324 323 322 321 321 321 321 320 319 319 319 318 318 317 318 318 319 318 318 319 319 319 319 319 319 319 319 319 319 318 316 316 318 319 319 319 319 319 319 319 320 320 322 324 321 318 319 317 313 314 316 317 319 319 320 321 321 322 324 323 321 322 321 318 319 314 311 315 314 315 331 351 354 355 357 355 356 355 355 357 357 357 357 357 359 359 358
322 322 321 321 321 320 321 321 320 320 319 319 319 318 318 318 318 318 319 319 318 318 319 319 319 319 319 319 319 320 319 317 316 318 319 318 318 319 318 319 320 319 321 325 327 322 319 322 320 314 312 313 313 315 315 316 319 320 322 323 323 323 322 319 315 313 311 313 316 314 316 334 354 355 354 357 355 354 355 353 353 355 355 355 357 358 358 360
323 321 320 320 320 319 320 320 319 320 319 319 320 318 318 318 317 317 318 318 319 319 319 319 319 319 319 319 319 319 319 318 318 318 319 319 319 319 318 319 318 319 327 330 327 323 322 323 322 319 316 315 315 318 322 321 318 316 318 320 322 323 323 321 315 312 313 314 315 317 322 331 343 352 355 354 354 354 355 354 353 353 354 355 357 357 357 358
322 322 321 321 320 319 320 319 318 320 319 319 320 319 318 318 317 316 317 317 318 319 318 319 319 319 319 319 319 318 318 319 319 319 319 319 319 319 318 318 318 325 333 330 323 322 322 319 321 323 321 320 321 323 323 323 319 316 317 318 320 324 325 321 315 315 320 316 313 323 330 326 332 349 353 350 352 354 354 353 352 353 354 355 356 356 355 356
322 324 322 322 321 320 320 319 319 319 319 319 320 318 318 318 318 318 317 317 318 318 318 319 319 319 319 319 319 319 319 319 319 319 320 320 319 318 319 318 318 324 328 323 319 323 322 317 320 321 319 321 324 323 323 323 322 321 321 320 321 323 323 320 317 320 324 317 315 328 333 328 333 347 352 352 352 351 353 353 351 353 354 354 356 356 354 354
322 323 322 320 321 322 321 319 319 319 318 320 320 318 318 318 319 319 318 318 319 318 318 320 320 319 319 320 320 322 323 322 322 323 322 321 321 319 319 318 318 320 320 318 321 323 320 318 322 321 319 321 322 322 323 322 321 322 322 323 324 324 323 322 322 325 325 321 325 333 332 332 340 346 351 354 352 349 350 351 351 352 353 353 354 354 354 353
327 329 328 323 319 321 321 319 319 319 319 320 320 319 319 318 319 319 317 318 320 319 318 319 320 319 319 321 321 322 324 325 325 324 322 321 322 320 320 320 319 319 319 319 321 322 319 318 322 322 317 317 321 323 322 322 321 320 320 324 325 324 324 325 324 327 327 327 333 333 329 336 348 349 351 354 351 350 350 350 351 351 351 352 352 352 352 353
331 332 331 328 322 321 321 318 319 320 319 319 319 319 319 319 319 319 317 317 319 320 319 319 320 320 319 321 322 322 322 323 323 322 321 321 321 321 321 321 320 320 320 320 320 321 320 319 321 321 314 314 319 320 320 322 320 316 318 323 325 323 323 325 328 331 331 330 333 329 327 338 349 349 351 351 349 350 349 349 351 350 350 352 352 352 353 353
330 331 330 328 324 321 320 319 319 320 319 320 321 319 319 319 318 318 319 318 317 317 319 319 319 319 320 321 322 321 320 320 321 320 320 320 319 319 320 319 319 320 320 321 321 321 321 320 319 317 313 313 317 318 319 319 315 315 321 327 328 329 328 329 332 335 335 336 335 329 331 344 349 347 348 349 347 348 348 349 350 351 352 352 352 352 353 352
Wind_Speed
13 12 12 11 11 10 10 10 9 9 9 9 9 9 9 9 8 8 8 8 8 8 9 9 9 9 9 10 11 10 9 11 12 12 14 13 11 12 11 10 14 16 19 17 15 15 14 14 14 13 11 9 6 5 5 3 2 2 2 1 2 1 2 2 2 8 11 15 15 12 13 14 12 10 8 10 10 10 10 10 11 12 15 20 24 26 25 24
13 13 13 12 12 11 10 10 10 9 9 9 9 9 9 9 9 8 8 8 8 8 8 9 9 9 9 9 10 10 10 13 16 17 18 17 12 12 13 12 14 18 21 18 17 17 14 13 12 12 9 6 4 4 4 2 2 2 2 1 2 1 4 2 4 11 12 15 15 12 13 12 13 13 10 10 12 11 11 12 14 17 19 23 26 25 24 24
14 14 14 13 12 11 11 10 10 9 9 9 9 9 9 10 9 9 8 8 8 8 8 9 9 9 8 8 8 8 10 15 15 13 11 14 16 15 13 14 16 19 23 19 16 16 13 11 11 11 8 5 5 5 4 3 1 1 2 1 2 3 4 3 6 11 14 17 16 13 11 12 12 12 10 11 14 12 12 14 15 19 21 22 22 23 24 23
15 15 14 13 12 11 11 10 10 9 10 9 9 9 9 10 10 10 9 8 8 8 8 8 8 8 7 7 6 6 10 14 7 2 3 6 12 15 15 15 17 20 23 17 14 15 14 11 11 10 8 5 4 5 5 4 3 3 1 1 1 2 2 5 9 12 14 16 17 16 13 12 12 10 9 12 13 11 12 14 16 20 22 23 22 22 23 22
15 15 14 13 12 11 10 10 10 10 10 9 9 9 9 9 9 10 9 8 8 8 8 8 8 6 6 6 4 5 9 7 3 7 3 3 6 12 17 17 18 21 21 16 13 15 14 11 11 9 8 5 4 6 5 4 3 3 2 4 3 4 3 5 11 14 12 13 15 17 15 13 12 10 10 11 10 8 10 14 18 20 21 22 22 22 21 20
16 15 14 13 11 11 10 10 9 9 10 10 10 10 10 9 9 9 9 8 7 7 7 7 7 5 4 4 3 5 9 2 5 5 3 6 5 12 18 18 18 21 20 17 14 14 12 11 11 9 8 5 5 7 3 6 7 2 3 4 3 5 3 2 11 16 12 13 14 14 13 12 13 12 9 9 10 9 11 16 19 20 21 22 22 21 20 18
16 15 14 12 11 10 9 9 9 9 10 11 12 11 11 11 9 9 9 8 7 6 7 6 6 4 2 4 4 6 11 4 6 3 7 6 5 14 18 17 19 20 19 17 14 12 10 11 11 7 7 5 2 5 4 9 9 4 3 4 4 6 5 4 8 14 13 13 12 11 13 13 14 13 9 9 12 12 13 17 19 20 21 22 20 20 19 18
16 16 15 13 11 10 9 9 8 9 9 11 12 12 12 12 11 10 9 8 6 5 5 5 5 3 2 5 8 8 9 2 7 4 8 1 9 15 17 17 19 20 18 17 15 11 9 11 11 7 6 5 2 6 9 8 7 5 4 5 7 8 9 9 9 12 13 11 11 12 12 12 13 11 10 11 13 14 16 18 19 20 20 19 19 19 18 17
17 16 15 13 12 11 10 10 9 9 9 11 13 13 13 12 11 10 9 9 7 5 4 4 3 1 2 5 9 7 1 6 7 3 3 7 12 16 17 16 19 19 17 17 15 12 9 9 10 7 4 5 7 7 6 4 3 7 5 6 8 9 11 11 11 13 11 6 8 13 11 11 13 11 11 12 13 15 17 18 19 19 19 17 17 17 16 16
18 16 16 14 12 11 10 10 9 10 10 11 12 13 13 12 10 9 8 8 7 5 3 3 2 1 4 7 10 5 4 7 5 5 5 11 14 16 17 15 18 17 15 16 15 13 10 9 8 5 3 6 9 7 3 3 1 8 10 9 7 8 10 6 4 9 10 4 3 11 12 11 10 8 8 11 14 16 17 19 19 18 18 17 16 16 15 15
18 17 16 14 13 11 10 10 11 11 12 11 12 13 13 11 9 8 7 6 6 5 3 3 2 3 7 10 10 3 6 5 2 6 8 12 13 15 16 14 16 16 15 14 15 14 12 10 7 5 4 4 7 7 3 2 1 7 10 9 7 7 9 9 8 9 8 4 4 4 12 9 3 4 9 13 15 16 18 19 19 17 16 16 17 15 13 14
19 18 17 15 14 12 11 11 12 13 13 13 12 12 11 9 8 6 5 5 5 4 2 2 3 3 8 10 8 2 5 2 3 6 9 11 12 13 13 12 14 15 14 12 13 13 12 10 8 9 5 3 6 6 1 2 3 4 5 5 6 7 9 9 8 6 5 4 2 3 9 7 2 7 13 15 15 16 18 19 18 17 15 16 16 13 12 13
19 18 17 15 14 13 13 13 13 14 14 14 12 10 8 6 4 4 4 4 3 2 2 3 3 3 9 7 0 4 3 1 5 7 9 10 9 9 9 11 13 13 12 11 11 11 10 8 10 12 8 8 6 3 2 4 2 3 3 3 5 5 5 5 7 8 7 5 3 3 5 7 6 10 13 15 16 16 17 18 17 16 15 15 14 13 12 14
18 18 17 15 14 13 13 13 13 14 13 13 10 7 4 2 3 2 3 3 2 2 2 3 3 5 9 3 5 3 2 3 7 9 10 9 9 8 9 11 11 11 10 10 10 8 8 8 11 10 9 11 7 5 5 7 3 2 2 4 2 2 3 4 4 8 8 5 4 1 3 7 8 11 13 14 16 16 16 17 17 16 15 14 14 13 13 13
19 18 16 15 13 13 13 13 13 13 12 11 7 3 1 1 1 1 3 2 2 3 4 3 4 5 8 4 4 3 5 6 9 10 9 10 10 9 10 10 9 8 7 8 7 6 7 9 9 8 9 10 9 6 8 7 5 4 1 2 5 3 4 3 4 6 7 6 4 2 3 6 8 12 13 13 15 15 16 16 17 16 16 15 14 13 13 13
19 18 16 14 13 13 13 12 12 12 11 8 4 1 1 1 1 0 1 2 5 5 5 4 7 7 8 0 6 5 7 8 11 11 9 10 9 9 11 10 9 7 7 6 4 5 8 9 8 9 9 8 9 8 7 7 6 5 3 3 2 3 5 5 5 3 5 8 5 2 4 5 8 13 13 13 15 14 15 16 17 17 16 15 13 13 13 13
19 18 16 14 13 12 12 11 12 11 8 5 2 1 1 1 2 2 3 5 4 3 5 7 4 7 6 2 5 9 8 8 12 11 9 8 6 9 11 10 9 8 8 7 6 7 8 9 8 8 8 7 8 8 8 8 5 2 3 1 1 1 4 6 6 4 5 9 7 5 6 7 10 14 13 13 14 14 14 16 16 16 15 14 13 13 13 13
19 18 17 14 12 12 11 11 11 9 5 2 1 2 2 1 1 2 3 5 4 5 8 8 5 6 4 5 6 7 9 9 11 11 9 7 6 9 11 8 8 9 8 8 8 9 8 8 8 7 8 8 9 9 8 6 2 3 1 2 0 3 5 6 7 8 10 10 9 8 7 8 12 14 13 13 14 13 14 15 15 15 15 14 13 14 13 13
19 18 17 14 12 11 11 10 10 6 2 1 2 2 2 1 1 4 7 7 7 5 2 5 6 3 3 6 5 6 9 10 10 10 9 8 7 10 10 7 8 10 8 7 9 10 8 7 8 8 8 10 10 10 9 4 2 4 6 4 3 2 3 4 6 10 13 10 10 9 7 11 12 12 13 13 13 13 13 14 13 13 14 14 13 13 13 14
19 18 16 14 11 10 10 9 9 5 3 3 2 2 2 2 3 5 8 10 8 6 3 3 5 2 2 7 7 8 9 10 10 9 9 10 10 12 10 7 9 9 9 8 8 9 9 8 10 10 11 12 12 14 12 3 4 2 8 5 3 2 1 4 7 10 11 8 10 10 8 11 11 12 13 13 13 13 14 16 14 13 13 13 14 14 14 13
18 17 16 14 11 9 9 9 8 5 5 4 4 8 4 4 3 2 1 8 8 5 4 2 4 4 0 4 6 8 10 10 10 9 9 11 11 11 9 9 10 8 10 10 7 8 9 9 11 12 14 11 11 16 13 4 6 6 6 6 3 4 2 3 6 10 10 6 8 11 9 10 11 11 11 10 12 13 14 16 16 16 14 12 14 15 15 12
18 17 16 13 11 9 8 8 8 6 7 6 8 12 4 9 6 7 7 5 6 3 4 2 3 3 2 3 5 9 10 10 10 10 10 11 12 11 8 10 10 8 11 10 7 9 9 11 13 15 14 8 6 10 9 5 9 9 4 6 4 5 5 3 3 7 9 5 7 13 9 9 9 7 6 8 12 12 14 15 15 16 15 13 13 14 15 14
17 16 15 12 11 8 8 9 8 7 8 10 11 11 5 7 7 7 8 7 4 4 5 5 5 6 8 7 7 11 11 9 10 11 11 12 12 9 8 10 11 10 11 11 9 8 8 11 14 14 11 8 8 8 7 7 9 7 3 4 5 6 5 4 5 8 9 3 4 11 8 5 6 5 6 8 10 9 11 13 14 15 14 14 13 13 14 15
16 16 14 11 10 8 8 7 6 9 11 13 14 11 7 5 8 8 8 7 4 4 3 4 4 5 6 3 9 15 11 7 9 10 12 13 10 7 8 10 11 11 10 12 12 10 10 10 13 16 10 7 10 10 9 8 8 9 7 4 7 11 8 4 8 8 6 1 4 9 5 1 5 6 7 8 9 7 10 10 12 14 14 14 13 13 14 15
15 15 13 11 9 8 7 5 6 10 11 14 14 10 7 6 8 8 8 5 6 5 4 6 4 3 5 3 10 12 8 7 9 10 12 13 9 7 8 8 9 10 10 13 13 11 11 5 7 14 10 7 12 12 11 9 8 9 9 6 5 12 11 6 10 10 3 2 7 9 5 2 6 8 9 9 8 9 10 10 12 14 15 14 13 14 14 15
14 14 12 9 8 7 6 3 4 7 9 10 6 4 5 6 6 7 8 5 5 5 6 7 3 3 6 8 10 8 8 7 7 10 12 12 8 5 7 7 7 9 10 12 9 8 10 6 3 6 6 10 14 11 11 9 8 8 4 6 3 7 11 8 9 9 3 2 6 8 5 2 5 9 11 10 9 10 9 10 13 14 15 14 13 13 14 15
13 13 11 9 7 6 4 4 6 8 7 3 2 4 6 5 5 6 6 4 4 3 4 5 3 3 5 9 12 7 4 7 8 9 11 9 7 5 7 7 7 8 8 9 8 9 9 7 5 8 8 10 12 10 9 8 9 5 4 1 4 5 9 10 9 6 3 4 5 7 6 1 3 8 11 12 11 10 9 11 13 13 15 16 15 14 15 16
12 12 10 8 7 7 8 9 11 11 6 5 4 8 6 4 4 5 6 1 5 1 1 5 4 3 4 9 12 5 4 8 7 9 9 9 9 7 7 8 9 8 7 8 8 7 7 4 6 12 11 9 9 10 9 6 8 4 4 5 6 4 5 9 8 3 2 4 4 7 7 3 2 5 9 11 11 11 11 13 15 16 17 17 16 17 16 16
12 11 9 8 8 9 12 12 12 11 8 7 7 8 7 6 5 6 5 2 3 2 1 5 3 6 7 10 10 5 5 7 5 7 9 8 9 8 6 7 10 8 5 10 9 4 5 6 7 10 10 10 9 11 12 9 8 6 1 6 8 4 3 6 4 2 2 5 3 8 10 4 1 4 8 9 10 12 12 11 14 17 17 17 17 18 17 16
11 10 9 7 6 6 9 11 13 12 8 7 8 9 9 6 5 7 2 4 1 3 4 3 4 7 10 11 9 9 9 5 4 8 8 6 8 9 6 4 8 8 6 11 14 2 3 1 4 7 9 9 8 10 14 10 7 8 4 6 9 5 4 4 3 2 3 6 4 9 14 9 4 4 8 9 11 14 13 11 14 16 17 17 16 17 17 16
10 10 9 8 7 5 7 7 7 7 6 8 9 9 8 5 6 5 4 4 1 5 6 6 6 8 11 10 7 8 10 7 7 9 7 5 8 9 6 3 6 7 7 9 13 7 4 3 4 7 9 9 7 9 10 7 7 10 6 6 7 5 4 4 3 4 5 6 4 12 17 13 6 5 10 11 11 16 16 15 17 17 16 17 16 17 17 15
9 9 9 10 10 11 11 7 6 5 5 8 9 8 7 5 5 1 6 2 3 3 3 4 8 9 10 7 6 8 9 7 8 10 8 8 7 7 8 6 5 7 7 7 10 9 7 8 7 8 10 10 8 6 7 6 8 10 7 8 8 5 5 6 5 6 6 5 4 8 12 9 3 3 11 14 12 15 17 16 18 19 17 17 16 17 15 14
9 9 10 11 11 13 13 11 10 8 6 8 8 6 7 4 1 3 2 2 1 2 1 3 6 7 6 6 6 7 7 6 8 9 9 9 7 9 11 7 7 9 6 6 9 9 8 8 10 10 8 10 11 8 7 7 8 10 9 8 8 6 7 7 6 6 6 6 5 5 4 4 2 3 8 14 13 15 17 16 17 18 18 18 17 17 16 15
8 9 9 10 11 12 12 12 12 9 8 9 6 5 8 3 2 1 0 5 5 3 3 2 4 5 6 6 5 6 5 5 8 9 7 8 7 7 9 4 6 8 6 7 8 8 9 8 12 13 9 11 14 12 10 7 7 11 10 9 9 7 7 6 5 5 5 5 5 4 2 2 2 4 7 11 11 13 14 14 15 14 14 16 17 17 17 16
6 7 8 8 10 11 12 13 11 8 7 7 6 6 6 3 3 1 3 5 2 3 5 3 5 7 7 5 5 6 6 3 7 8 6 8 7 5 7 6 7 9 7 6 5 6 10 7 10 15 11 12 15 14 13 11 6 8 9 10 9 8 7 6 5 5 4 4 4 3 2 3 4 6 8 8 9 14 14 12 12 10 10 13 15 17 17 15
5 6 7 9 9 7 8 9 8 7 7 7 7 4 1 4 5 4 4 3 4 1 4 5 7 7 6 4 4 8 8 4 6 8 6 8 8 5 6 5 5 8 8 5 3 5 9 3 11 12 9 9 12 13 14 12 7 5 8 10 9 8 8 7 8 8 7 7 4 4 4 3 4 4 7 8 9 13 15 16 14 12 13 15 16 16 16 15
7 8 8 9 7 5 6 7 7 7 7 7 5 4 3 3 4 5 3 3 3 2 4 5 4 4 4 5 5 7 7 4 7 8 5 6 4 3 3 3 1 6 7 6 5 4 7 3 9 11 9 8 10 12 15 14 11 6 7 9 9 8 8 6 7 7 7 8 5 7 7 3 3 3 6 10 10 12 13 15 17 16 15 16 16 15 14 15
8 9 8 6 4 3 5 7 7 7 7 6 2 2 3 2 4 4 3 3 2 3 7 4 2 4 5 4 5 8 7 4 6 7 4 4 4 2 3 5 4 5 7 7 7 4 5 5 7 10 10 9 10 11 12 14 15 13 8 6 8 9 8 6 6 6 6 8 6 6 8 6 6 6 7 9 10 13 12 13 16 16 14 15 16 17 17 16
9 9 6 6 5 4 4 6 8 7 6 6 2 1 1 3 5 3 3 3 3 3 6 4 1 3 3 0 3 7 7 4 5 5 4 5 5 4 4 2 5 6 5 9 8 2 4 6 4 7 9 10 10 9 10 10 13 15 11 7 7 7 7 6 7 7 7 7 6 6 7 3 1 4 11 12 10 12 12 12 13 15 16 13 10 13 15 15
10 7 4 9 6 4 4 6 8 7 6 4 2 0 0 2 3 4 3 3 3 2 4 3 2 4 2 2 4 4 4 5 5 4 3 3 3 6 2 2 1 3 4 8 9 3 5 8 4 4 6 7 7 8 10 9 10 11 10 7 7 6 6 6 7 8 8 7 6 6 6 1 3 2 7 11 10 11 11 12 10 11 15 13 9 11 12 14
10 7 4 10 6 4 5 7 6 6 5 2 0 1 2 3 2 3 2 3 3 2 4 4 2 3 2 3 2 3 3 4 5 4 4 5 3 3 4 1 3 3 3 8 8 5 5 7 6 5 6 7 9 10 13 13 10 10 9 9 9 8 7 7 7 8 7 8 6 6 6 3 3 3 1 6 7 9 11 13 12 12 15 16 15 16 15 13
9 4 5 8 6 5 7 7 3 4 3 2 2 3 3 2 5 1 1 2 2 1 2 3 3 2 1 1 1 3 4 3 4 4 5 4 2 5 4 0 4 5 5 6 4 0 3 5 7 7 5 4 7 13 16 14 9 8 10 11 11 9 7 7 8 6 6 8 8 8 7 2 4 2 2 5 6 8 10 11 10 9 10 11 12 14 14 13
7 2 6 7 5 6 9 5 3 4 0 3 1 2 2 3 2 1 1 2 2 1 1 1 1 2 2 2 3 4 3 0 1 1 2 5 6 6 3 1 3 4 5 6 1 4 3 5 7 8 5 2 3 8 10 10 8 9 10 10 11 11 9 8 8 6 6 8 8 8 7 1 3 3 4 6 7 8 9 11 12 9 7 8 11 11 12 13
5 1 5 7 7 8 8 4 4 3 3 2 3 3 2 1 3 3 3 2 2 2 2 2 2 1 1 3 5 2 1 2 1 1 0 4 5 3 2 2 4 5 3 5 5 2 3 5 5 7 7 6 6 6 6 9 9 8 9 9 11 14 14 11 9 7 7 9 9 9 6 2 3 4 5 7 8 8 8 11 14 12 10 11 11 11 11 10
4 2 2 5 8 9 7 4 4 2 4 4 4 4 4 3 2 4 4 3 2 4 2 1 2 2 1 2 4 1 2 4 2 1 1 1 4 3 2 2 3 4 4 7 8 5 4 3 5 7 7 7 6 4 4 7 7 8 10 11 14 17 15 11 8 9 9 7 8 9 4 4 4 4 5 7 7 9 10 9 10 11 11 12 11 11 11 9
3 3 3 4 7 7 4 3 4 2 4 4 2 1 3 3 6 2 3 2 1 3 2 1 1 3 1 3 5 4 3 3 2 2 3 2 2 3 2 3 2 3 5 4 6 7 4 4 5 7 8 6 3 4 8 8 8 12 14 15 16 15 12 10 9 8 7 6 7 8 5 3 5 4 5 6 6 8 11 10 9 9 10 11 10 10 11 10
4 3 3 2 4 5 4 4 4 1 2 3 2 1 3 1 4 4 1 1 1 2 2 1 2 2 1 3 5 3 2 3 2 3 3 3 3 2 1 5 1 5 3 4 7 5 5 5 6 7 9 7 4 5 9 10 12 13 13 15 15 11 11 13 12 9 7 7 7 4 7 3 4 2 3 5 5 6 8 9 8 8 8 9 9 9 11 11
4 2 1 1 2 4 2 3 4 2 3 2 2 2 3 2 1 1 2 1 1 2 2 1 0 1 1 2 3 3 3 3 3 3 3 3 4 3 3 6 2 3 5 8 5 2 5 6 6 7 7 7 7 8 8 8 10 10 9 9 10 11 13 13 13 13 11 9 7 5 8 7 3 3 3 2 5 5 6 8 8 7 7 7 7 8 10 11
4 2 0 1 3 4 1 0 3 2 3 0 1 3 3 2 1 1 2 1 1 1 3 2 1 0 0 1 2 2 1 1 3 2 1 2 4 4 4 5 4 4 6 6 1 1 3 4 5 7 7 7 8 7 8 9 8 8 10 9 8 12 15 12 12 14 12 10 8 6 7 6 3 7 4 3 5 3 5 6 7 7 6 6 6 8 10 11
4 3 1 3 4 3 2 3 4 4 4 1 1 2 2 1 1 2 1 4 3 2 1 2 2 0 2 2 1 1 4 1 3 1 1 3 3 2 3 3 4 6 6 5 2 1 2 3 4 6 8 8 6 6 8 9 9 10 11 9 8 11 12 12 10 9 9 9 7 8 9 3 7 8 4 0 0 4 5 4 5 6 7 8 8 9 9 10
8 4 2 5 3 2 3 5 5 4 3 3 3 2 2 1 2 2 2 3 5 3 2 2 2 1 2 2 2 1 4 2 4 5 2 4 3 1 2 1 3 6 5 4 4 3 3 4 4 6 8 6 7 8 7 8 11 10 6 2 5 8 7 4 2 5 7 9 8 7 6 1 5 5 3 1 0 3 5 5 6 6 7 8 9 10 9 8
9 3 2 6 3 1 4 5 4 4 2 0 1 1 2 1 3 1 1 1 1 2 3 4 2 3 3 3 3 4 5 4 5 4 3 4 3 3 3 2 3 6 5 3 4 3 4 5 4 5 6 6 9 9 7 8 10 7 1 4 6 8 6 4 7 8 8 8 7 4 1 3 3 2 3 2 2 3 4 5 6 7 7 8 9 10 11 9
Wind_Direction
344 343 341 340 337 335 335 334 332 331 331 330 329 328 326 324 321 320 318 314 310 303 303 303 307 310 315 320 317 324 328 308 287 254 238 250 250 237 241 221 204 188 174 185 202 198 198 206 210 207 211 216 218 238 210 224 261 202 250 262 272 282 116 266 180 144 141 138 138 149 157 141 138 144 135 137 129 120 122 121 121 120 118 118 126 134 137 139
344 343 341 338 337 335 334 332 330 329 329 329 330 329 328 324 320 318 314 313 308 302 301 300 305 311 317 319 319 334 331 299 275 259 245 245 242 229 235 223 199 184 180 194 204 198 202 205 203 204 211 225 226 204 188 240 304 254 255 159 262 350 73 246 162 135 140 136 135 148 155 143 142 144 146 144 131 132 127 120 121 116 115 119 129 136 138 143
344 342 340 337 337 336 333 330 325 325 325 324 326 328 330 329 324 319 314 312 305 299 295 294 303 309 318 318 322 344 324 293 271 258 241 234 234 229 226 212 198 189 188 199 205 202 212 212 201 207 213 229 237 203 177 219 204 222 261 158 255 5 62 194 153 131 135 135 140 150 154 146 144 142 149 148 139 144 133 126 127 124 128 131 135 139 142 147
344 342 341 338 335 334 332 327 322 321 319 319 323 327 332 332 327 322 317 312 303 296 290 292 300 309 325 321 333 358 306 282 265 121 131 217 231 225 215 201 197 193 195 207 210 209 222 224 210 213 228 234 247 226 186 207 199 136 237 232 124 51 96 169 138 130 141 144 145 149 155 148 141 139 146 151 145 142 133 134 137 135 138 138 140 143 146 150
345 343 342 340 336 333 329 325 322 319 318 321 325 326 330 332 329 324 318 313 304 292 287 288 295 310 327 323 347 337 290 268 101 83 90 266 249 216 202 194 195 193 199 214 213 216 227 231 219 214 234 243 280 259 159 166 226 119 246 262 120 135 176 166 144 141 151 149 143 147 152 143 137 136 144 151 141 133 136 137 138 139 141 140 143 145 148 151
346 345 343 342 339 333 329 325 321 320 323 326 325 322 323 328 332 324 316 314 304 289 287 289 298 313 324 323 334 292 272 276 64 58 2 312 261 197 189 188 190 191 203 216 214 218 225 227 224 215 231 231 253 277 102 157 213 130 239 243 129 172 183 163 148 144 153 149 144 147 139 133 137 132 134 140 132 132 132 132 137 139 141 141 143 146 149 152
346 346 344 342 339 334 331 327 325 326 327 323 319 317 318 322 330 325 314 310 303 294 288 289 304 307 318 313 294 258 251 276 54 31 324 315 215 180 178 182 184 193 207 216 214 216 220 221 223 217 240 248 233 277 260 198 181 122 225 186 150 193 152 122 140 144 155 144 135 138 135 138 139 129 124 124 124 129 127 129 135 137 140 143 144 148 149 151
347 347 346 343 341 339 336 333 332 326 321 314 312 314 316 319 327 327 316 309 303 294 285 291 305 293 327 308 277 245 235 299 57 6 317 255 174 168 167 176 186 199 210 214 215 213 217 222 225 224 237 260 244 240 247 222 153 130 221 174 166 183 146 144 159 156 152 134 129 135 134 137 135 127 120 122 126 128 130 132 135 138 142 144 146 147 148 152
349 349 349 347 346 343 340 336 330 321 314 309 309 312 314 318 323 324 317 313 307 298 285 284 288 273 329 300 274 256 179 43 57 32 356 144 159 162 165 177 189 202 211 212 217 215 215 221 224 227 233 259 260 250 257 268 146 143 185 191 181 171 151 159 173 158 134 121 145 136 124 127 133 128 118 129 137 130 133 136 138 141 143 145 147 146 149 151
349 349 350 349 348 343 338 332 323 317 311 307 309 309 312 316 317 316 314 316 311 302 295 279 270 256 283 272 265 259 77 43 61 98 123 150 155 164 177 186 189 203 213 209 215 218 217 223 221 221 243 242 244 255 280 301 130 146 172 187 184 164 144 132 128 112 96 72 131 127 126 131 139 136 130 143 143 136 139 140 141 144 144 146 145 145 151 150
350 349 348 348 345 340 334 327 321 317 316 316 315 310 311 315 313 312 313 316 307 296 296 275 230 243 275 270 265 278 62 31 69 120 147 158 160 175 188 190 192 205 212 207 213 219 221 233 238 222 243 238 225 235 234 280 270 165 173 170 161 140 106 81 63 64 78 75 17 110 125 121 133 138 142 148 145 142 143 142 145 146 145 146 144 147 153 148
350 349 347 345 342 338 331 326 324 322 323 322 319 314 311 314 315 314 317 315 297 287 288 250 196 250 282 269 258 342 48 42 116 137 158 162 171 183 191 196 198 207 213 211 212 218 225 242 254 228 240 299 248 251 218 209 242 192 174 149 126 93 74 80 92 86 94 103 321 236 132 117 154 141 146 152 147 146 145 146 148 147 146 146 145 149 154 149
350 348 345 343 339 334 329 327 325 324 325 323 322 319 314 318 311 310 319 306 284 278 261 213 181 251 275 268 248 63 47 99 134 150 162 168 176 184 199 198 199 213 222 222 217 219 225 245 259 235 242 271 259 341 342 218 211 182 157 108 88 76 82 86 98 112 117 130 196 232 145 143 152 146 156 156 149 149 149 151 151 149 149 148 148 154 155 151
349 346 343 341 336 331 327 326 324 324 326 323 323 320 317 317 299 321 328 306 277 240 186 182 188 250 263 266 63 86 156 133 150 162 165 169 168 174 190 188 200 218 222 232 231 219 218 246 264 250 247 261 280 350 254 218 160 181 86 86 149 130 111 96 111 139 131 135 171 189 152 149 143 154 164 158 154 152 152 156 154 152 152 150 153 158 155 154
347 343 342 339 333 328 325 324 323 324 328 326 324 320 289 261 270 351 323 302 191 166 142 177 216 246 258 224 102 131 163 163 168 165 165 170 165 167 173 178 200 210 211 235 239 215 220 243 257 253 238 239 261 275 239 213 174 191 65 107 194 160 124 126 142 167 150 144 176 195 147 145 148 160 164 162 161 156 156 161 157 154 155 154 156 160 156 157
345 341 340 337 331 325 323 323 322 327 331 324 313 276 195 195 182 321 325 138 147 142 142 228 221 233 276 57 118 161 187 183 167 161 169 173 169 167 166 175 192 195 203 222 233 220 226 238 241 247 248 230 233 243 240 225 183 182 202 196 204 151 150 150 143 187 162 146 160 173 152 159 161 160 163 168 167 161 161 164 160 157 157 157 158 161 157 159
342 340 339 336 328 323 323 321 323 330 328 314 281 184 159 199 177 122 128 140 146 166 219 272 258 237 271 71 152 188 186 164 154 161 172 180 181 164 164 177 186 188 198 205 218 220 216 228 235 241 252 245 235 232 239 234 190 192 243 122 32 200 168 156 153 176 179 165 162 159 160 160 158 161 165 170 170 166 166 166 163 160 160 161 162 160 160 162
340 339 337 332 327 323 322 320 324 332 321 284 193 152 122 137 116 123 161 155 179 225 240 258 266 257 221 169 187 175 159 151 156 166 166 181 190 169 174 183 176 181 192 198 206 211 205 210 226 232 229 229 234 228 234 250 207 203 235 76 126 226 204 181 160 163 177 182 171 161 161 159 162 165 168 173 175 170 169 170 166 165 163 163 166 163 161 164
338 337 334 329 326 320 318 319 321 326 301 187 141 100 98 129 246 240 225 197 200 239 256 191 214 295 90 146 142 122 141 151 160 170 168 177 180 176 185 185 179 189 197 191 189 199 203 204 217 226 223 218 224 231 239 284 320 173 138 143 187 206 223 181 152 165 172 179 176 167 160 163 168 172 173 175 177 174 170 171 170 169 166 165 172 166 161 166
335 336 333 326 323 319 317 315 313 304 231 175 176 244 226 224 229 206 206 209 229 276 324 171 207 261 110 138 122 116 139 159 174 178 174 177 177 180 186 189 191 198 212 198 178 192 204 213 217 219 225 221 222 237 242 266 309 202 126 132 180 167 191 144 151 171 174 176 177 171 158 162 175 181 178 175 179 179 170 172 174 172 171 172 174 166 162 168
333 334 331 324 321 318 314 307 302 275 224 197 239 257 288 359 337 21 217 214 213 245 268 253 253 269 156 124 136 151 161 176 185 174 174 182 183 183 178 193 198 196 217 209 178 188 207 223 223 219 227 228 230 241 242 235 268 251 146 132 174 182 160 135 155 168 176 187 180 176 161 161 186 186 170 172 187 186 173 173 175 174 175 178 176 165 164 169
332 333 329 323 317 316 312 301 288 256 225 221 250 258 315 20 349 340 328 246 165 164 247 208 226 239 189 193 184 182 185 182 177 168 174 186 193 192 173 193 209 197 205 210 195 190 205 228 229 222 224 238 264 253 249 241 246 252 173 143 175 180 140 120 172 179 187 202 184 184 172 157 181 188 171 188 200 189 177 178 175 175 176 179 179 166 166 170
332 330 327 320 314 315 309 297 273 238 221 224 248 270 323 12 324 313 303 277 129 137 202 174 199 186 172 202 190 197 208 181 172 169 174 196 203 203 191 194 213 210 199 206 207 201 208 222 230 227 216 226 255 250 247 244 242 251 214 146 159 177 175 165 183 195 200 218 182 184 179 153 164 185 203 222 225 190 170 181 182 177 177 182 181 168 170 172
331 325 324 318 311 311 307 303 260 232 226 230 250 281 315 331 309 311 295 273 122 120 169 145 220 193 154 180 177 201 217 170 174 167 170 204 199 193 218 206 214 216 204 208 210 222 226 213 228 228 200 213 245 238 238 241 241 241 224 189 163 174 200 196 156 174 203 187 148 162 159 174 178 186 195 209 229 197 159 181 194 183 178 182 181 172 174 174
329 321 321 314 307 305 302 289 237 232 234 239 251 269 286 302 310 314 295 262 124 114 153 152 221 185 119 165 184 215 236 168 176 161 169 212 201 181 214 209 223 218 199 208 213 229 230 204 245 231 194 219 248 237 234 235 244 244 219 209 182 159 166 164 146 153 191 189 170 172 166 183 188 197 195 182 201 197 167 183 200 189 180 182 182 177 177 176
327 317 315 308 302 299 294 275 239 248 248 248 257 278 285 304 319 312 290 247 130 123 163 164 195 150 151 184 181 221 242 170 144 148 174 217 222 222 219 193 219 229 201 203 217 242 225 182 230 237 198 226 242 240 235 229 240 256 210 182 194 152 145 144 156 159 169 168 182 208 218 156 174 205 202 181 189 201 186 192 201 190 181 183 184 180 181 179
324 313 309 298 287 280 278 323 319 285 269 273 326 308 301 313 319 305 276 221 121 119 170 141 125 151 166 179 182 209 213 137 129 157 183 213 220 237 233 195 203 229 211 195 213 238 220 172 184 226 232 231 233 235 230 225 232 267 12 94 220 206 159 156 172 174 171 154 157 214 237 223 196 208 195 179 182 196 201 205 204 197 188 183 182 186 186 179
320 308 302 286 275 263 261 294 304 287 310 16 325 298 310 309 297 276 263 149 89 145 185 92 100 202 176 176 201 224 113 146 171 168 176 206 216 223 226 213 214 219 206 202 208 206 199 187 209 224 234 236 234 232 225 236 242 233 12 320 271 253 190 182 184 155 167 193 167 192 214 236 212 185 178 177 181 190 201 206 201 198 194 186 181 188 189 179
318 303 293 279 272 267 262 273 280 283 322 342 302 304 304 281 271 251 254 60 92 215 98 83 141 193 174 173 205 217 166 195 205 150 163 200 222 243 259 230 217 204 195 232 232 153 162 212 228 225 228 232 235 238 227 221 243 246 253 274 267 254 218 213 196 109 204 237 212 170 180 196 174 159 173 185 195 194 193 203 204 195 193 191 184 187 190 182
313 296 287 273 259 271 267 251 250 264 294 306 300 303 285 264 251 250 237 81 126 149 129 171 168 159 172 176 184 197 193 181 121 152 174 191 202 229 272 260 223 198 175 236 248 234 100 210 265 249 239 241 237 240 237 220 242 277 280 251 247 228 230 232 186 161 230 250 230 171 178 199 209 171 182 195 200 193 184 192 203 194 191 193 187 187 191 183
306 289 278 256 233 244 257 242 245 260 278 297 297 285 271 245 242 262 64 75 170 132 158 187 148 160 195 188 167 182 187 155 144 176 184 175 187 205 224 224 231 214 179 219 241 232 183 197 253 248 244 261 262 243 240 229 242 262 258 244 240 215 231 241 199 202 228 246 217 171 180 206 233 206 195 196 194 188 184 189 192 188 191 193 188 190 189 181
297 282 269 252 241 242 253 286 326 301 284 295 287 270 260 243 247 13 83 157 212 155 186 150 143 192 215 201 174 171 177 166 170 186 185 182 190 194 199 197 197 210 203 204 214 212 207 206 209 217 224 241 258 242 216 212 232 242 237 237 239 221 225 234 221 224 234 248 226 179 185 207 233 195 189 189 191 189 185 189 187 181 187 192 189 191 187 179
291 276 263 252 248 246 253 276 292 286 287 283 274 262 258 261 332 43 98 176 81 72 95 117 161 204 216 208 193 166 161 159 179 196 193 193 203 191 194 213 215 215 222 210 203 204 211 207 199 206 207 209 228 237 213 203 212 223 229 231 230 224 231 237 230 231 240 236 215 188 203 218 166 126 175 183 187 187 183 185 186 181 182 186 188 192 187 180
284 265 256 251 248 247 250 259 267 278 282 266 257 258 265 289 75 206 5 77 76 90 121 155 179 186 219 217 173 158 166 156 181 201 193 197 219 200 187 211 239 238 248 229 214 203 211 214 200 202 193 185 210 233 245 251 223 215 227 236 234 231 236 248 241 238 258 256 224 182 202 269 173 149 187 194 176 168 175 178 177 181 186 185 186 192 188 180
276 249 244 245 249 253 254 257 260 263 263 259 258 254 265 342 47 335 28 58 99 150 138 190 206 190 212 207 150 184 221 210 191 197 195 199 206 203 198 190 205 237 258 241 218 206 229 228 171 186 198 183 196 222 241 259 249 212 222 235 234 234 243 260 266 265 272 268 250 218 215 46 88 153 182 193 157 151 167 171 166 179 194 192 190 192 189 181
247 221 224 231 241 250 246 246 242 232 243 259 265 268 22 34 15 16 24 344 308 55 144 191 214 206 191 159 163 196 211 235 200 189 202 203 184 177 201 178 178 232 251 249 227 210 240 235 133 167 211 198 198 214 221 240 252 204 211 230 234 236 243 255 265 265 262 249 206 196 231 90 105 171 167 165 156 155 164 163 166 184 192 195 195 190 187 179
215 202 217 221 221 233 225 223 222 221 240 259 275 330 27 53 19 19 18 328 332 317 232 205 200 246 212 162 181 191 189 204 194 190 209 205 163 108 180 153 113 269 271 278 276 241 247 243 138 168 212 203 205 218 216 230 249 234 210 220 225 233 237 247 266 259 251 254 211 191 226 188 159 213 162 162 165 159 163 161 169 182 185 192 192 188 189 177
239 223 228 207 188 234 219 208 224 230 250 263 270 332 314 51 48 24 9 322 281 255 261 247 146 251 247 172 168 172 172 192 195 192 200 186 146 103 222 180 157 245 273 273 265 239 247 248 148 170 209 198 197 217 218 220 235 251 266 243 221 226 223 213 241 254 246 253 245 223 228 202 189 196 170 181 174 157 165 168 169 176 183 195 192 186 187 177
252 238 215 161 160 226 209 208 237 244 251 263 252 179 276 63 74 47 14 307 269 279 285 293 125 241 259 130 175 169 163 191 204 187 181 184 160 164 247 241 158 194 244 256 257 238 251 258 170 174 201 187 186 212 218 206 218 241 266 272 243 240 240 222 228 250 260 260 261 261 250 210 165 168 164 179 179 162 170 169 167 179 185 190 195 193 185 171
232 240 170 140 155 207 212 228 245 245 243 268 307 122 4 47 94 83 24 307 287 311 307 300 233 232 211 172 195 168 161 204 209 177 161 202 175 152 174 318 213 186 193 235 256 262 239 248 228 180 172 175 189 208 221 213 202 216 233 243 238 232 236 242 237 233 246 260 261 263 256 140 39 309 171 168 165 159 171 168 163 189 188 176 190 209 191 171
225 242 142 138 154 183 225 238 239 250 244 215 308 70 50 332 337 96 101 298 305 327 322 324 285 239 185 186 194 153 182 202 185 165 166 203 220 122 96 17 300 278 197 211 233 236 235 243 237 208 181 203 210 198 216 230 216 209 215 222 234 235 223 231 239 229 233 249 251 262 262 133 90 310 190 146 149 153 173 172 165 188 190 178 186 197 189 178
237 238 123 139 157 185 237 248 229 259 268 116 75 63 90 285 302 347 152 276 293 281 304 326 330 311 246 231 230 197 213 190 156 182 180 166 90 65 82 326 289 276 252 231 214 89 326 281 257 241 215 224 214 190 204 227 238 237 224 218 232 240 232 232 238 231 232 239 236 250 261 118 101 252 187 153 157 158 171 166 157 180 188 180 186 187 182 180
232 194 129 149 170 208 241 255 225 238 10 76 77 80 129 239 282 321 306 298 299 318 333 351 351 325 318 288 258 230 237 232 104 233 173 118 81 65 79 353 298 270 267 269 221 64 339 265 256 266 254 224 193 179 196 223 243 249 231 216 225 234 233 240 253 262 253 243 232 237 249 149 126 212 182 154 154 156 162 154 154 175 181 180 185 175 175 177
240 197 140 162 188 220 240 257 243 218 95 123 195 146 140 341 4 349 6 25 339 333 356 13 2 351 1 295 284 297 306 259 262 314 261 110 94 68 52 27 297 272 308 347 2 35 270 247 241 255 246 219 197 174 192 216 222 241 237 215 221 236 239 236 243 258 252 247 248 245 241 134 148 194 161 152 157 153 159 156 154 160 163 171 176 167 166 170
258 231 155 162 187 222 248 275 263 205 131 180 200 155 167 141 77 320 338 42 355 325 337 71 352 319 317 279 277 287 264 259 243 178 266 98 109 91 29 15 310 308 36 16 338 301 273 270 253 247 241 233 223 211 236 230 214 228 239 232 225 226 234 243 241 232 233 257 277 266 246 107 128 194 167 158 164 155 154 157 151 151 156 162 163 163 164 163
260 215 202 170 186 220 245 278 277 242 151 183 181 182 223 131 118 192 294 352 26 332 332 68 312 285 274 259 245 214 222 269 291 188 197 207 145 94 9 312 324 22 47 14 292 273 275 262 253 266 265 261 285 300 285 273 240 219 218 233 240 227 227 252 255 236 240 263 262 258 257 163 152 200 187 167 177 164 150 148 153 156 158 159 155 158 161 161
266 245 227 188 203 220 199 203 243 224 135 189 181 201 258 89 123 158 215 326 345 304 300 348 314 287 266 269 263 233 223 242 236 206 202 229 222 124 310 277 235 104 123 228 233 244 276 254 237 256 260 258 278 275 266 265 255 237 216 220 238 238 229 240 249 252 264 261 248 302 335 291 193 197 207 179 187 179 152 148 154 153 155 158 153 156 164 168
258 270 285 16 258 249 196 192 230 174 139 188 195 207 240 229 171 149 104 125 220 258 263 224 344 323 347 291 282 281 271 251 211 199 196 225 233 189 213 269 287 135 203 230 221 237 280 260 241 252 255 250 246 240 246 255 254 262 263 239 233 241 239 239 246 249 251 255 262 343 347 300 265 68 38 259 220 188 149 142 137 131 138 143 145 158 170 175
264 266 201 182 247 285 340 98 262 215 143 138 206 203 237 219 153 67 33 294 207 125 295 287 106 326 290 154 258 276 345 252 232 208 179 237 252 239 234 255 274 277 265 263 246 56 294 274 258 271 270 250 241 235 240 245 231 234 254 253 243 246 245 243 248 251 254 260 267 276 270 275 358 59 75 256 243 156 118 125 127 132 147 152 165 181 178 173
302 325 358 233 233 263 223 189 243 224 143 150 227 181 260 281 92 90 54 317 321 97 258 269 120 14 336 87 202 239 97 160 263 67 106 256 259 249 248 250 260 273 285 299 328 60 272 259 240 262 264 243 240 249 240 240 238 227 225 231 251 257 245 239 251 269 276 269 264 262 250 253 23 27 53 162 283 98 110 138 147 158 169 169 178 190 184 172
321 322 319 270 239 222 223 202 225 227 178 199 202 168 229 216 72 69 96 352 333 7 359 330 104 189 299 92 127 87 74 7 340 35 1 293 336 329 272 329 293 279 282 295 302 300 281 264 226 239 254 236 232 252 254 251 249 236 215 221 297 281 254 236 313 352 331 305 290 268 254 89 36 348 325 341 139 135 138 155 166 171 173 177 183 181 173 162
330 298 277 279 249 187 244 224 216 228 207 124 99 148 234 117 83 309 276 82 325 348 3 340 325 246 235 138 101 47 25 353 348 5 316 300 321 291 285 326 296 297 311 291 273 279 282 281 258 243 258 247 232 241 257 264 254 237 199 28 2 324 317 22 28 15 9 346 312 278 307 66 112 218 272 280 236 182 153 156 168 168 168 182 186 168 150 141